Regional Weather Roundup
Issued by NWS

Home | Current Version | Previous Version | Graphics & Text | Print | Product List | Glossary On
Versions: 1 2 3 4 5 6 7 8 9 10 11 12 13 14 15 16 17 18 19 20 21 22 23 24 25 26 27 28 29 30 31 32 33 34 35 36 37 38 39 40 41 42 43 44 45 46 47 48 49 50
000
ASUS45 KTFX 301110
RWRMT
MONTANA REGIONAL WEATHER ROUNDUP
NATIONAL WEATHER SERVICE GREAT FALLS MT
500 AM MDT SUN AUG 30 2015

NOTE: "FAIR" INDICATES FEW OR NO CLOUDS BELOW 12000 FEET WITH NO
SIGNIFICANT WEATHER AND/OR OBSTRUCTIONS TO VISIBILITY.

MTZ001>007-043-301200-
WEST OF THE DIVIDE

CITY           SKY/WX    TMP DP  RH WIND       PRES   REMARKS
KALISPELL      CLOUDY    60  52  74 S5        29.85S
MISSOULA       CLOUDY    60  49  66 NW10      29.89S
BUTTE          LGT RAIN  56  48  74 NW10      30.01R
MULLAN PASS    CLOUDY    47  39  74 VRB6      29.98R
DEER LODGE       N/A     57  50  77 CALM      29.96F
EUREKA           N/A     57  43  58 S5        29.84S
HAMILTON         N/A     59  54  82 SW3       29.90R
LIBBY            N/A     50  45  81 CALM      29.86R
PLAINS           N/A     58  50  75 MISG      29.90R
$$

MTZ008-052>055-301200-
SOUTHWEST MONTANA

CITY           SKY/WX    TMP DP  RH WIND       PRES   REMARKS
BOZEMAN        CLOUDY    64  49  57 SE3       29.88R
DILLON         LGT RAIN  65  45  48 SW17G28   29.96R
W YELLOWSTONE  MOCLDY    50  48  93 CALM      30.05F
$$

MTZ009-010-012-014-046-048-049-054-301200-
EAST SLOPES AND CENTRAL MONTANA

CITY           SKY/WX    TMP DP  RH WIND       PRES   REMARKS
CUT BANK       MOCLDY    60  40  47 W18       29.81F
GREAT FALLS    CLOUDY    63  48  58 SE8       29.82R HAZE
MALMSTROM AFB  CLOUDY    62  48  61 SE6       29.82F
HELENA         CLOUDY    64  48  56 W18G25    29.88R HAZE
CONRAD           N/A     63  51  64 W9        29.85R
$$

MTZ011-013-016-021-045-047-050-051-301200-
NORTH CENTRAL MONTANA

CITY           SKY/WX    TMP DP  RH WIND       PRES   REMARKS
HAVRE          CLOUDY    63  50  62 MISG      29.76R
LEWISTOWN      CLOUDY    64  49  57 W7        29.87S
N BAR RANCH    PTSUNNY   70  46  43 W5        29.87F
CHINOOK          N/A     66  48  52 W3        29.75S
FORT BENTON      N/A     63  52  67 W3        29.79F
$$

MTZ017>020-022>027-061-062-301200-
NORTHEAST MONTANA

CITY           SKY/WX    TMP DP  RH WIND       PRES   REMARKS
GLASGOW        MOCLDY    70  47  43 NW16      29.67S HAZE
JORDAN           N/A     68  48  48 W10       29.68R
SIDNEY         CLOUDY    64  52  63 NW15      29.66R
WOLF POINT     CLOUDY    65  50  58 N12       29.64R HAZE
MALTA            N/A     69  55  60 SW12      29.73R
PLENTYWOOD       N/A     70  48  46 NE5       29.66F
POPLAR           N/A     72  52  49 NE8       29.63F
$$

MTZ028>42-056>058-301200-
SOUTHCENTRAL AND SOUTHEAST MONTANA

CITY           SKY/WX    TMP DP  RH WIND       PRES   REMARKS
BAKER          MOCLDY    63  48  58 E10       29.72F
BILLINGS       CLOUDY    81  43  26 SW6       29.79F
LIVINGSTON     MOCLDY    73  44  35 SW30G40   29.84R
MILES CITY     CLOUDY    67  45  45 W5        29.69R
EKALAKA          N/A     80  36  20 SE12      29.77F
FORSYTH          N/A     68  46  45 S3        29.69S
LAUREL           N/A     79  44  28 CALM      29.80F
$$

REGIONAL REPORTS...DAKOTAS

CITY           SKY/WX    TMP DP  RH WIND       PRES   REMARKS
WILLISTON      CLOUDY    64  55  72 NW3       29.66S
MINOT          MOCLDY    70  57  63 SE6       29.68F
DICKINSON      MOCLDY    63  50  62 S12       29.71F
CROSBY           N/A     68  54  60 SW7       29.68S
BISMARCK       PTCLDY    64  61  90 E5        29.75F
GRAND FORKS    PTCLDY    65  64  97 S10       29.77S
FARGO          CLEAR     65  62  90 S12       29.83S
BUFFALO SD       N/A     66  48  52 SE6       29.71F
RAPID CITY     MOCLDY    64  46  52 SE6       29.85F
$$

REGIONAL REPORTS...WYOMING/IDAHO/WASHINGTON

CITY           SKY/WX    TMP DP  RH WIND       PRES   REMARKS
GILLETTE       CLOUDY    71  33  24 S18       29.85F
SHERIDAN       CLOUDY    66  42  41 NW9       29.81R
BUFFALO WY     CLOUDY    78  36  21 SW12      29.90S
CODY           CLOUDY    72  43  35 W5        29.92S
YELLOWSTONE LA   N/A     47  45  93 CALM      30.15F
IDAHO FALLS    PTCLDY    58  55  90 SW12      29.97R
SALMON         CLOUDY    66  46  48 S14G29    29.88S
BOISE          CLEAR     63  43  48 W3        29.91R
SPOKANE        PTCLDY    55  43  63 S10       29.84S
$$

REGIONAL REPORTS...ALBERTA

CITY           SKY/WX    TMP DP  RH WIND       PRES   REMARKS
EDMONTON       CLEAR     54  46  76 SW5       29.49R
CALGARY        PTCLDY    52  37  58 SW5       29.64S
LETHBRIDGE     CLEAR     54  37  54 SW9       29.74R
MEDICINE HAT   PTCLDY    63  45  51 S14       29.69R
WATERTON GATE    N/A     57  37  47 SW15G22     N/A
CARDSTON         N/A     59  36  41 S8          N/A
MILK RIVER       N/A     59  41  51 SW13        N/A
$$

REGIONAL REPORTS...SASKATCHEWAN

CITY           SKY/WX    TMP DP  RH WIND       PRES   REMARKS
SWIFT CURRENT  PTCLDY    64  50  59 SW8       29.70S
REGINA         MOCLDY    70  50  49 E8        29.61F SMOKE
SASKATOON      MOCLDY    64  57  77 SW7       29.61S
CYPRESS HILLS    N/A     64  36  34 W3          N/A
VAL MARIE        N/A     63  52  67 NE3         N/A
ROCKGLEN         N/A     64  50  59 W6          N/A
$$



USA.gov is the U.S. government's official web portal to all federal, state and local government web resources and services.